weather.gov     
National Weather Service

Regional Weather Roundup
NWS Homepage
This page is being discontinued on March 12, 2014.
The same data is available at this site. Please update your bookmarks.
Thank you, and we apologize for the inconvenience.
Please send an email to SR-SRH.Webmaster@noaa.gov with any concerns.


Current Version
Previous Version:    01  02  03  04  05  06  07  08  09  10  11  12  13  14  15  16  17  18  19  20  21  22  23  24  25  26  
[Printable]
176
ASUS44 KBMX 261010
RWRAL

ALABAMA REGIONAL WEATHER ROUNDUP
NATIONAL WEATHER SERVICE BIRMINGHAM AL
400 AM CST MON JAN 26 2015

NOTE: "FAIR" INDICATES FEW OR NO CLOUDS BELOW 12,000 FEET
WITH NO SIGNIFICANT WEATHER AND/OR OBSTRUCTIONS TO VISIBILITY.

THE REMARK "TC" DENOTES TEMPERATURE IN DEGREES CELSIUS.

ALZ001>011-014-016>018-020-261100-
NORTH ALABAMA

CITY           SKY/WX    TMP DP  RH WIND       PRES   REMARKS
MUSCLE SHOALS  CLOUDY    41  36  82 NW14G23   29.91R
HUNTSVILLE     CLOUDY    43  39  86 NW13G22   29.84R
DECATUR        CLOUDY    42  39  89 NW20G29   29.86R
HALEYVILLE     LGT RAIN  38  38 100 NW8       29.90R FOG     WCI  32
GADSDEN        CLOUDY    45  36  70 W14       29.82R
$$

ALZ012-013-022-023-030>036-040>044-261100-
WEST CENTRAL ALABAMA

CITY           SKY/WX    TMP DP  RH WIND       PRES   REMARKS
TUSCALOOSA     CLOUDY    45  36  70 NW8       29.93R
$$

ALZ015-024>027-033>036-040>044-261100-
CENTRAL ALABAMA

CITY           SKY/WX    TMP DP  RH WIND       PRES   REMARKS
BIRMINGHAM     CLOUDY    43  37  79 W15G23    29.88R
MONTGOMERY     CLOUDY    47  35  63 NW22G28   29.90R
SHELBY CO ARPT CLOUDY    44  37  76 W8        29.88R
MAXWELL AFB    MOCLDY    46  36  66 W12G17    29.88S
GREENVILLE     CLOUDY    48  36  63 NW9       29.88S
$$

ALZ019-021-028-029-037-038-045>048-261100-
EAST CENTRAL ALABAMA

CITY           SKY/WX    TMP DP  RH WIND       PRES   REMARKS
ANNISTON       CLOUDY    45  40  82 W10       29.82R
ALEXANDER CITY MOCLDY    49  41  73 W12G17    29.84R
AUBURN         CLOUDY    43  36  75 W8        29.85R
$$

ALZ051>064-261100-
SOUTHWEST ALABAMA

CITY           SKY/WX    TMP DP  RH WIND       PRES   REMARKS
MOBILE         CLEAR     47  35  63 NW10G21   29.99R
BROOKLEY FIELD CLEAR     49  36  61 NW8       30.00R
EVERGREEN      CLOUDY    47  37  68 CALM      29.91S
$$

ALZ049-050-065>069-261100-
SOUTHEAST ALABAMA

CITY           SKY/WX    TMP DP  RH WIND       PRES   REMARKS
DOTHAN         CLEAR     46  39  76 W9        29.89R
OZARK          CLEAR     45  38  78 W6        29.87S
TROY           MOCLDY    61  39  44 W7        29.88R
EUFAULA        MOCLDY    46  40  79 W5        29.83S
$$




U.S. Dept. of Commerce
NOAA National Weather Service
1325 East West Highway
Silver Spring, MD 20910
E-mail: w-nws.webmaster@noaa.gov
Page last modified: May 16, 2007
NATIONAL WEATHER SERVICE: for Safety, for Work, for Fun - FOR LIFE